TimeCST,TemperatureF,Dew PointF,Humidity,Sea Level PressureIn,VisibilityMPH,Wind Direction,Wind SpeedMPH,Gust SpeedMPH,PrecipitationIn,Events,Conditions,WindDirDegrees,DateUTC
12:15 AM,37.4,35.6,93,29.91,10.0,NNE,10.4,-,N/A,,Clear,20,2012-11-09 06:15:00
12:35 AM,37.4,35.6,93,29.90,10.0,NNE,9.2,-,N/A,,Clear,30,2012-11-09 06:35:00
12:55 AM,37.4,35.6,93,29.90,10.0,NNE,9.2,-,N/A,,Clear,30,2012-11-09 06:55:00
1:15 AM,37.4,35.6,93,29.90,10.0,NNE,9.2,-,N/A,,Clear,20,2012-11-09 07:15:00
1:35 AM,37.4,35.6,93,29.90,10.0,NNE,10.4,-,N/A,,Clear,30,2012-11-09 07:35:00
1:55 AM,35.6,35.6,100,29.90,9.0,NNE,8.1,-,N/A,,Clear,20,2012-11-09 07:55:00
2:15 AM,35.6,33.8,93,29.90,8.0,NNE,9.2,-,N/A,,Clear,30,2012-11-09 08:15:00
2:35 AM,35.6,35.6,100,29.89,10.0,NE,8.1,-,N/A,,Clear,40,2012-11-09 08:35:00
2:55 AM,35.6,33.8,93,29.89,10.0,NNE,8.1,-,N/A,,Clear,30,2012-11-09 08:55:00
3:15 AM,35.6,33.8,93,29.88,10.0,NE,9.2,-,N/A,,Clear,40,2012-11-09 09:15:00
3:35 AM,35.6,33.8,93,29.88,9.0,NE,8.1,-,N/A,,Clear,40,2012-11-09 09:35:00
3:55 AM,35.6,33.8,93,29.89,10.0,NE,8.1,-,N/A,,Clear,50,2012-11-09 09:55:00
4:15 AM,33.8,33.8,100,29.89,9.0,NE,8.1,-,N/A,,Clear,50,2012-11-09 10:15:00
4:35 AM,35.6,33.8,93,29.88,10.0,NE,8.1,-,N/A,,Clear,50,2012-11-09 10:35:00
4:55 AM,33.8,33.8,100,29.89,10.0,ENE,8.1,-,N/A,,Clear,60,2012-11-09 10:55:00
5:15 AM,35.6,33.8,93,29.89,10.0,NE,6.9,-,N/A,,Clear,50,2012-11-09 11:15:00
5:35 AM,35.6,33.8,93,29.90,10.0,NNE,8.1,-,N/A,,Clear,30,2012-11-09 11:35:00
5:55 AM,33.8,32.0,93,29.90,7.0,NE,5.8,-,N/A,,Clear,40,2012-11-09 11:55:00
6:15 AM,33.8,33.8,100,29.89,6.0,NNE,9.2,-,N/A,,Clear,30,2012-11-09 12:15:00
6:35 AM,33.8,33.8,100,29.89,6.0,NNE,10.4,-,N/A,,Clear,30,2012-11-09 12:35:00
6:55 AM,33.8,33.8,100,29.89,5.0,NNE,8.1,-,N/A,,Clear,30,2012-11-09 12:55:00
7:15 AM,33.8,33.8,100,29.89,5.0,NE,6.9,-,N/A,,Clear,40,2012-11-09 13:15:00
7:35 AM,33.8,33.8,100,29.90,5.0,NE,9.2,-,N/A,,Clear,40,2012-11-09 13:35:00
7:55 AM,33.8,33.8,100,29.89,5.0,NE,10.4,-,N/A,,Clear,40,2012-11-09 13:55:00
8:15 AM,35.6,35.6,100,29.90,5.0,NE,11.5,-,N/A,,Clear,50,2012-11-09 14:15:00
8:55 AM,37.4,37.4,100,29.90,7.0,NE,12.7,-,N/A,,Clear,50,2012-11-09 14:55:00
9:15 AM,39.2,37.4,93,29.90,8.0,ENE,13.8,-,N/A,,Clear,60,2012-11-09 15:15:00
9:35 AM,41.0,37.4,87,29.89,9.0,ENE,10.4,-,N/A,,Clear,60,2012-11-09 15:35:00
9:55 AM,42.8,39.2,87,29.89,10.0,ENE,12.7,-,N/A,,Clear,70,2012-11-09 15:55:00
10:15 AM,44.6,39.2,81,29.89,10.0,East,13.8,-,N/A,,Clear,80,2012-11-09 16:15:00
10:35 AM,44.6,39.2,81,29.89,10.0,East,12.7,-,N/A,,Clear,90,2012-11-09 16:35:00
10:55 AM,46.4,39.2,76,29.88,10.0,East,13.8,-,N/A,,Clear,80,2012-11-09 16:55:00
11:15 AM,48.2,39.2,71,29.87,10.0,East,15.0,-,N/A,,Clear,90,2012-11-09 17:15:00
11:35 AM,50.0,39.2,66,29.86,10.0,East,12.7,-,N/A,,Clear,90,2012-11-09 17:35:00
11:55 AM,51.8,41.0,67,29.83,10.0,East,17.3,-,N/A,,Clear,90,2012-11-09 17:55:00
12:15 PM,53.6,41.0,62,29.82,10.0,East,19.6,-,N/A,,Clear,100,2012-11-09 18:15:00
12:35 PM,53.6,41.0,62,29.82,10.0,East,16.1,23.0,N/A,,Clear,90,2012-11-09 18:35:00
12:55 PM,55.4,41.0,58,29.80,10.0,East,19.6,-,N/A,,Clear,100,2012-11-09 18:55:00
1:15 PM,55.4,41.0,58,29.79,10.0,East,18.4,24.2,N/A,,Clear,90,2012-11-09 19:15:00
1:35 PM,57.2,42.8,59,29.79,10.0,East,16.1,24.2,N/A,,Clear,100,2012-11-09 19:35:00
1:55 PM,57.2,42.8,59,29.78,10.0,ESE,18.4,26.5,N/A,,Clear,110,2012-11-09 19:55:00
2:15 PM,57.2,42.8,59,29.78,-9999.0,East,19.6,-,N/A,,Clear,100,2012-11-09 20:15:00
2:35 PM,57.2,42.8,59,29.77,10.0,East,19.6,25.3,N/A,,Clear,100,2012-11-09 20:35:00
2:55 PM,57.2,42.8,59,29.78,10.0,ESE,15.0,23.0,N/A,,Clear,110,2012-11-09 20:55:00
3:15 PM,57.2,42.8,59,29.77,10.0,ESE,19.6,26.5,N/A,,Clear,110,2012-11-09 21:15:00
3:35 PM,57.2,42.8,59,29.77,10.0,ESE,19.6,25.3,N/A,,Clear,110,2012-11-09 21:35:00
3:55 PM,55.4,42.8,63,29.78,10.0,ESE,20.7,-,N/A,,Clear,120,2012-11-09 21:55:00
4:15 PM,55.4,42.8,63,29.77,10.0,ESE,19.6,-,N/A,,Clear,120,2012-11-09 22:15:00
4:35 PM,53.6,42.8,67,29.78,10.0,ESE,15.0,20.7,N/A,,Clear,110,2012-11-09 22:35:00
4:55 PM,51.8,42.8,71,29.78,10.0,ESE,13.8,-,N/A,,Clear,110,2012-11-09 22:55:00
5:15 PM,51.8,42.8,71,29.78,10.0,East,12.7,-,N/A,,Clear,100,2012-11-09 23:15:00
5:35 PM,50.0,42.8,76,29.78,10.0,East,12.7,-,N/A,,Partly Cloudy,100,2012-11-09 23:35:00
5:55 PM,50.0,42.8,76,29.78,10.0,East,10.4,-,N/A,,Mostly Cloudy,90,2012-11-09 23:55:00
6:15 PM,50.0,42.8,76,29.79,10.0,East,9.2,-,N/A,,Overcast,90,2012-11-10 00:15:00
6:35 PM,48.2,42.8,82,29.79,10.0,East,12.7,-,N/A,,Mostly Cloudy,90,2012-11-10 00:35:00
6:55 PM,48.2,42.8,82,29.79,10.0,East,12.7,-,N/A,,Clear,90,2012-11-10 00:55:00
7:15 PM,48.2,44.6,87,29.78,10.0,East,12.7,-,N/A,,Clear,90,2012-11-10 01:15:00
7:35 PM,48.2,44.6,87,29.78,9.0,East,11.5,18.4,N/A,,Partly Cloudy,90,2012-11-10 01:35:00
7:55 PM,48.2,44.6,87,29.78,10.0,East,13.8,-,N/A,,Mostly Cloudy,90,2012-11-10 01:55:00
8:15 PM,50.0,44.6,82,29.78,9.0,East,13.8,20.7,N/A,,Overcast,80,2012-11-10 02:15:00
8:35 PM,46.4,42.8,87,29.78,10.0,ENE,9.2,-,N/A,,Overcast,70,2012-11-10 02:35:00
8:55 PM,46.4,42.8,87,29.78,10.0,East,10.4,-,N/A,,Overcast,80,2012-11-10 02:55:00
9:15 PM,48.2,44.6,87,29.77,10.0,East,11.5,-,N/A,,Overcast,90,2012-11-10 03:15:00
9:35 PM,50.0,44.6,82,29.76,10.0,East,16.1,-,N/A,,Overcast,100,2012-11-10 03:35:00
9:55 PM,50.0,44.6,82,29.75,10.0,East,13.8,-,N/A,,Overcast,100,2012-11-10 03:55:00
10:15 PM,50.0,44.6,82,29.75,10.0,East,16.1,-,N/A,,Mostly Cloudy,100,2012-11-10 04:15:00
10:35 PM,50.0,44.6,82,29.73,10.0,ESE,15.0,21.9,N/A,,Mostly Cloudy,110,2012-11-10 04:35:00
10:55 PM,50.0,46.4,87,29.72,10.0,ESE,15.0,21.9,N/A,,Mostly Cloudy,110,2012-11-10 04:55:00
11:15 PM,50.0,46.4,87,29.72,10.0,ESE,16.1,21.9,N/A,,Scattered Clouds,110,2012-11-10 05:15:00
11:35 PM,48.2,46.4,93,29.71,9.0,East,15.0,21.9,N/A,,Partly Cloudy,100,2012-11-10 05:35:00
11:55 PM,48.2,46.4,93,29.71,9.0,ESE,13.8,20.7,N/A,,Clear,110,2012-11-10 05:55:00